Location: Laporte
(40.6264°N, 105.1378°W)
Time: 14:41:23
(UTC+00:00)

Envisat - Pass Details

Date: 17 August 2022
Orbit: 764 x 765 km, 98.2° (Epoch: 26 September)

Event Time Altitude Azimuth Distance (km) Brightness Sun altitude
Rises 09:55:38 0° 37° (NE) 3,237 7.7 -23.1°
Reaches altitude 10° 10:00:08 10° 75° (ENE) 2,303 6.3 -22.5°
Maximum altitude 10:01:18 11° 88° (E) 2,250 6.1 -22.3°
Drops below altitude 10° 10:02:29 10° 102° (ESE) 2,299 5.9 -22.1°
Sets 10:06:56 0° 139° (SE) 3,216 6.2 -21.5°
